Regional Weather Roundup
Issued by NWS

Home | Current Version | Previous Version | Graphics & Text | Print | Product List | Glossary On
Versions: 1 2 3 4 5 6 7 8 9 10 11 12 13 14 15 16 17 18 19 20 21 22 23 24 25 26 27 28 29 30 31 32 33 34 35 36 37 38 39 40 41 42 43 44 45 46 47 48 49 50
000
ASUS43 KMPX 291101
RWRMN
WEATHER ROUNDUP FOR MINNESOTA
NATIONAL WEATHER SERVICE TWIN CITIES/CHANHASSEN MN
600 AM CDT THU JUN 29 2017


NOTE: "FAIR" INDICATES FEW OR NO CLOUDS BELOW 12,000 FEET WITH NO
SIGNIFICANT WEATHER AND/OR OBSTRUCTIONS TO VISIBILITY. N/A MEANS
CURRENT SKY AND/OR WEATHER CONDITIONS ARE NOT AVAILABLE.

MNZ060>063-068>070-291200-
   Twin Cities Metro

CITY           SKY/WX    TMP DP  RH WIND       PRES   REMARKS
TWIN CITIES    CLOUDY    65  58  78 W8        29.68R
ST PAUL        CLOUDY    66  60  81 W9        29.67S
CRYSTAL        CLOUDY    65  56  72 NW9       29.65F
BLAINE         PTCLDY    66  61  82 W12       29.66F
LAKEVILLE      MOCLDY    61  61 100 W3        29.70R
EDEN PRAIRIE   CLOUDY    66  59  78 W7        29.68R
SOUTH ST PAUL  CLOUDY    66  59  77 W5        29.68R
LAKE ELMO      MOCLDY    64  59  82 W9        29.67S
$$
MNZ001>005-007-008-013>017-022>024-027-028-291200-
   Northwest Minnesota

CITY           SKY/WX    TMP DP  RH WIND       PRES   REMARKS
BEMIDJI        CLOUDY    58  58  98 NW5       29.73R
HALLOCK        FOG       54  52  94 E3        29.74S VSB<1/4
ROSEAU         PTCLDY    57  52  82 NW6       29.74S
WARROAD        MOCLDY    55  52  88 W3        29.74R
THIEF RVR FALL FOG       57  57 100 N6        29.76R VSB 1/2
CROOKSTON      PTCLDY    55  55 100 NW3       29.77R
FOSSTON        CLOUDY    57  57 100 CALM      29.75R
DETROIT LAKES  CLOUDY    59  57  94 NW8       29.74S
MOORHEAD       CLOUDY    61  57  88 N5        29.75R
PARK RAPIDS    CLOUDY    61  56  83 NW8       29.71S
MAHNOMEN       CLOUDY    58  58  99 N5        29.74R FOG
$$
MNZ006-009>011-018-025>026-291200-
   North Central Minnesota

CITY           SKY/WX    TMP DP  RH WIND       PRES   REMARKS
BAUDETTE       CLOUDY    58  58 100 N9        29.71R
FLAG ISLAND    CLOUDY    63  57  82 N7        29.72R
INTL FALLS     CLOUDY    59  56  89 NE6       29.67S
WASKISH        CLOUDY    59  57  94 N6        29.71R
BIG FORK       CLOUDY    59  57  94 NW5       29.67R FOG
LONGVILLE      CLOUDY    61  57  88 NW6       29.69R
GRAND RAPIDS   CLOUDY    59  57  93 N9        29.68R
CRANE LAKE     DRIZZLE   55  55 100 N3        29.66R
ORR            CLOUDY    57  54  88 NW3       29.63R
COOK           CLOUDY    57  57 100 N5        29.65R
WALKER         CLOUDY    58  56  96 W5        29.72R
$$
MNZ012-019>021-037-291200-
   Northeast Minnesota

CITY           SKY/WX    TMP DP  RH WIND       PRES   REMARKS
DULUTH         DRIZZLE   59  59 100 N10G18    29.60R FOG
ELY            DRIZZLE   57  57 100 CALM      29.61R
HIBBING        CLOUDY    57  57 100 NW13      29.63R
EVELETH        CLOUDY    58  55  90 N3        29.63R FOG
DULUTH HARBOR  CLOUDY    61  57  88 NW8       29.59R
TWO HARBORS    CLOUDY    63  57  82 CALM      29.57R
SILVER BAY     DRIZZLE   59  57  94 CALM      29.56R
GRAND MARAIS     N/A     60  58  92 NE13G20   29.53R
G MARAIS ARPRT DRIZZLE   54  52  94 N13G21    29.58R
$$
MNZ029>031-032-039>041-046>048-054>057-064-291200-
   West Central Minnesota

CITY           SKY/WX    TMP DP  RH WIND       PRES   REMARKS
FERGUS FALLS   CLOUDY    61  61 100 NW6       29.72R
WHEATON        CLOUDY    61  57  88 N5        29.74S FOG
MORRIS         CLOUDY    63  61  94 N9        29.70F
ALEXANDRIA     CLOUDY    62  59  90 N7        29.72F
ELBOW LAKE     CLOUDY    61  59  94 NW9       29.72F
WADENA         CLOUDY    61  57  88 NW5       29.72R
GLENWOOD       CLOUDY    63  59  88 NW9       29.71F
APPLETON       CLOUDY    63  59  88 N8        29.71R
BENSON         CLOUDY    63  59  88 N8        29.73R
ORTONVILLE     CLOUDY    63  59  88 NW5       29.73R
MADISON        CLOUDY    64  64 100 MISG      29.74R
WILLMAR        CLOUDY    63  61  94 NW7       29.74R
$$
MNZ033>034-036-042>043-049>051-058-059-291200-
   Central Minnesota

CITY           SKY/WX    TMP DP  RH WIND       PRES   REMARKS
ST CLOUD       CLOUDY    63  59  87 NW14      29.68F
SAUK CENTRE    CLOUDY    61  59  91 NW8       29.70F
PAYNESVILLE    CLOUDY    61  62 100 N7        29.69F
AITKIN         CLOUDY    59  57  94 W5        29.67R
PINE RIVER     CLOUDY    61  59  94 MISG      29.74R
BRAINERD       CLOUDY    60  58  92 NW9       29.70R
STAPLES        CLOUDY    61  57  88 NW6       29.71S
LONG PRAIRIE   CLOUDY    59  57  94 W8        29.71F
LITTLE FALLS   CLOUDY    61  55  82 NW6       29.69S
LITCHFIELD     CLOUDY    63  61  94 NW6       29.70F
BUFFALO        CLOUDY    64  57  80 NW7       29.68F
MAPLE LAKE     CLOUDY    64  60  86 NW9       29.69F
HUTCHINSON     PTCLDY    58  58  98 CALM      29.71R
$$
MNZ037-044-045-052-053-291200-
   East Central Minnesota

CITY           SKY/WX    TMP DP  RH WIND       PRES   REMARKS
PRINCETON      CLOUDY    64  61  88 W8        29.67F
MORA           MOCLDY    59  55  88 W7        29.69R
CAMBRIDGE      LGT RAIN  64  57  77 W7        29.65S
RUSH CITY      MOCLDY    61  57  88 NW6       29.65R
MOOSE LAKE     CLOUDY    59  55  88 W7        29.63R
HINCKLEY       CLOUDY    61  59  94 W5        29.66R
CLOQUET        CLOUDY    59  55  88 W8        29.62R
MCGREGOR       CLOUDY    59  57  94 NW8       29.66R
$$
MNZ071>073-080-081-089-090-097-098-291200-
   Southwest Minnesota

CITY           SKY/WX    TMP DP  RH WIND       PRES   REMARKS
MONTEVIDEO     CLOUDY    63  61  94 N7        29.73R
GRANITE FALLS  CLOUDY    63  61  95 NW6       29.74R
CANBY          CLOUDY    58  56  96 CALM      29.76R
MARSHALL       PTCLDY    57  55  93 W5        29.75R
REDWOOD FALLS  CLOUDY    60  57  89 W7        29.73R
OLIVIA         CLEAR     55  55 100 W6        29.73R
PIPESTONE      MOCLDY    59  55  88 CALM      29.77R
WINDOM         PTCLDY    57  55  94 CALM      29.77R
WORTHINGTON    CLOUDY    58  57  97 SW5       29.79R
JACKSON        CLEAR     59  55  88 CALM      29.78R
TRACY          PTCLDY    60  59  96 SW3       29.76R
SLAYTON        MOCLDY    57  56  95 CALM      29.77R
$$
MNZ065>067-074>077-082>085-091>093-291200-
   South Central Minnesota

CITY           SKY/WX    TMP DP  RH WIND       PRES   REMARKS
MANKATO        CLEAR     59  58  96 W5        29.74R
NEW ULM        CLEAR     59  57  94 SW5       29.75R
ST JAMES       CLOUDY    61  59  94 SW6       29.77R
FAIRMONT       PTCLDY    59  58  96 SW5       29.78R
GLENCOE        PTCLDY    60  60 100 CALM      29.69R
FARIBAULT      CLEAR     61  59  94 W6        29.72R
OWATONNA       CLEAR     61  59  94 SW6       29.74R
WASECA         CLEAR     55  55 100 S6        29.76R FOG
ALBERT LEA     PTCLDY    63  61  94 SW5       29.76R
$$
MNZ078>079-086>088-094>096-291200-
   Southeast Minnesota

CITY           SKY/WX    TMP DP  RH WIND       PRES   REMARKS
ROCHESTER      CLEAR     61  60  97 W9        29.74R
RED WING       MOCLDY    64  57  77 W5        29.66R
STANTON        CLEAR     61  58  90 W5        29.70R
DODGE CENTER   CLEAR     61  57  88 SW5       29.74R
WINONA         CLEAR     64  59  82 SW6       29.69R
AUSTIN         CLOUDY    61  57  88 W3        29.75R
PRESTON        CLOUDY    61  58  91 W9        29.75R
$$
ABBREVIATIONS USED IN REMARKS
   TC - TEMPERATURES IN CELSIUS
  WCI - WIND CHILL INDEX
   HX - HEAT INDEX
  VSB - VISIBILITY
$$



USA.gov is the U.S. government's official web portal to all federal, state and local government web resources and services.